Torna al catalogo

COSMOS 2272

AttivoMilitarePO
NORAD 23003·PAYLOAD·🇷🇺 Russia

Lanciato Feb 12, 1994 da Plesetsk Cosmodrome

Loading…

Prossimi Passaggi (prossime 24 ore)

TLE

AggiornatoSource: Space-Track

Epoca: Sep 14, 2026, 08:11 UTC

1 23003U 94011E   26257.34119002  .00000010  00000-0 -55734-5 0  9996
2 23003  82.5686 234.1525 0010842 317.9334  42.0925 12.64402313503693

Traccia COSMOS 2272 in tempo reale con AllMySat

Download on the App Store